Location: Dittelbrunn
(50.0738°N, 10.2196°E)
Time: 01:27:14
(UTC+00:00)

Lacrosse 4 Rocket - Pass Details

Date: 18 September 2020
Orbit: 543 x 615 km, 68.0° (Epoch: 30 October)

Event Time Altitude Azimuth Distance (km) Brightness Sun altitude
Rises 19:19:40 0° 332° (NNW) 2,716 5.8 -18.5°
Reaches altitude 10° 19:22:53 10° 360° (N) 1,822 4.3 -19.0°
Maximum altitude 19:24:59 14° 31° (NNE) 1,603 3.6 -19.3°
Enters shadow 19:25:49 13° 44° (NE) 1,642 3.6 -19.4°
